Flag for Germany Weather past 2 weeks in Radolfzell am Bodensee, Baden-Württemberg, Germany

Now
39 °F

Low clouds.


Feels Like: 35 °F
Forecast: 36 / 44 °F
Wind: 6 mph from West

Location: Konstanz

Current Time: Apr 1, 2015 at 12:51:14 PM

Latest Report: Apr 1, 2015 at 12:00 PM


Visibility: 19 mi

Pressure: 30.22 "Hg

Humidity: 82%

Dew point: 34 °F

Location of Radolfzell am BodenseeLocation

Historic Weather in Radolfzell am Bodensee — Graph

°F

Radolfzell am Bodensee temperature yesterday

Maximum temperature yesterday: 58 °F (at 12:00 PM)
Minimum temperature yesterday: 47 °F (at 2:00 AM)
Average temperature yesterday: 52 °F

Past Weeks' High & Low Weather Summary

 TemperatureHumidityPressure
High64 °F (Mar 18, 4:00 PM)100% (Mar 24, 6:00 AM)30.31 "Hg (Mar 24, 6:00 AM)
Low33 °F (Mar 24, 7:00 AM)31% (Mar 20, 5:00 PM)29.56 "Hg (Mar 25, 2:00 PM)
Average47 °F72%30.00 "Hg
* Reported Mar 17 10:00 AM — Apr 1 11:00 AM, Radolfzell am Bodensee, Weather by CustomWeather, © 2015

Note: Actual official high and low records may vary slightly from our data, if they occured in-between our weather recording intervals... More about our weather records

Advertising

Radolfzell am Bodensee weather history for previous 24 hours

 ConditionsComfort  
Time TempWeatherWind HumidityBarometerVisibility
11:00 AM
Wed, Apr 1
41 °FOvercast.8 mph74%30.21 "Hg25 mi
10:00 AM38 °FLow clouds.7 mph85%30.21 "Hg22 mi
9:00 AM37 °FLight rain. Low clouds.5 mph89%30.19 "Hg7 mi
8:00 AM36 °FLight rain. Low clouds.3 mph85%30.16 "Hg19 mi
7:00 AM39 °FPassing clouds.7 mph79%30.10 "Hg22 mi
6:00 AM39 °FOvercast.6 mph84%30.08 "Hg22 mi
5:00 AM40 °FFog.8 mph78%30.08 "Hg43 mi
4:00 AM43 °FQuite cool.6 mph63%30.06 "Hg43 mi
3:00 AM45 °FQuite cool.8 mph64%30.05 "Hg40 mi
2:00 AM46 °FCool.9 mph58%30.03 "Hg40 mi
1:00 AM47 °FCool.9 mph59%30.02 "Hg34 mi
12:00 AM46 °FCool.8 mph62%30.00 "Hg37 mi
11:00 PM
Tue, Mar 31
47 °FCool.7 mph59%29.99 "Hg34 mi
10:00 PM48 °FCool.8 mph56%29.98 "Hg43 mi
9:00 PM48 °FPassing clouds.6 mph61%29.97 "Hg25 mi
8:00 PM48 °FPassing clouds.7 mph71%29.94 "Hg19 mi
7:00 PM51 °FPartly sunny.9 mph66%29.89 "Hg19 mi
6:00 PM53 °FPartly sunny.13 mph70%29.84 "Hg25 mi
5:00 PM50 °FLight rain. Low clouds.12 mph77%29.82 "Hg7 mi
4:00 PM53 °FLight rain. Overcast.13 mph65%29.80 "Hg19 mi
3:00 PM56 °FLight rain. Overcast.10 mph61%29.77 "Hg19 mi
2:00 PM55 °FSprinkles. Overcast.10 mph67%29.78 "Hg16 mi
1:00 PM56 °FSprinkles. Overcast.13 mph62%29.75 "Hg12 mi
12:00 PM58 °FLight rain. Overcast.14 mph57%29.72 "Hg47 mi
Weather by CustomWeather, © 2015

See weather overviewHow to use our weather pages